Location: Vesunti
(61.5000°N, 22.8333°E)
Time: 09:58:40
(UTC+00:00)

ADEOS II - Pass Details

Date: 17 February 2020
Orbit: 799 x 801 km, 98.5° (Epoch: 04 April)

Event Time Altitude Azimuth Distance (km) Brightness Sun altitude
Rises 05:12:43 0° 29° (NNE) 3,327 5.5 -7.1°
Reaches altitude 10° 05:16:55 10° 356° (N) 2,394 4.4 -6.7°
Maximum altitude 05:18:23 11° 340° (NNW) 2,311 4.2 -6.5°
Drops below altitude 10° 05:19:52 10° 324° (NW) 2,393 4.1 -6.3°
Enters shadow 05:22:01 - 304° (NW) 2,772 4.3 -6.1°
